Location: Balaclava NSW 2575, Australia
(34.4510°S, 150.4953°E)
Time: 18:48:42
(UTC+10:00)

Vanguard 2 - Pass Details

Date: 17 June 2021
Orbit: 552 x 2937 km, 32.9° (Epoch: 24 July)

Event Time Altitude Azimuth Distance (km) Brightness Sun altitude
Rises 07:45:43 0° 281° (W) 4,251 10.9 6.6°
Reaches altitude 10° 07:48:06 10° 282° (WNW) 3,534 10.5 7.0°
Maximum altitude 07:57:45 82° 8° (N) 2,043 9.9 8.7°
Drops below altitude 10° 08:13:36 10° 92° (E) 5,510 12.8 11.3°
Sets 08:18:21 0° 92° (E) 6,692 13.1 12.0°
